| time (UTC) | temp C | wind direction | speed KPH | gust KPH | rain 1hr cm | rain 24hr cm | rain mn cm | humidity % | barometer mb |
| 20260902120744 | 11 | 199 | 8.0 | 16.1 | 0.00 | 0.00 | 0.00 | 88 | 733.8 |
| 20260902120244 | 11 | 200 | 8.0 | 20.9 | 0.00 | 0.00 | 0.00 | 88 | 733.8 |
| 20260902115745 | 11 | 209 | 8.0 | 20.9 | 0.00 | 0.00 | 0.00 | 88 | 733.8 |
| 20260902115247 | 11 | 194 | 9.7 | 16.1 | 0.00 | 0.00 | 0.00 | 88 | 733.8 |
| 20260902114744 | 11 | 196 | 8.0 | 19.3 | 0.00 | 0.00 | 0.00 | 89 | 733.8 |
| 20260902114247 | 11 | 192 | 9.7 | 17.7 | 0.00 | 0.00 | 0.00 | 89 | 733.8 |
| 20260902113747 | 11 | 199 | 8.0 | 16.1 | 0.00 | 0.00 | 0.00 | 89 | 733.8 |
| 20260902113247 | 11 | 202 | 8.0 | 17.7 | 0.00 | 0.00 | 0.00 | 89 | 733.8 |
| 20260902112744 | 11 | 194 | 9.7 | 17.7 | 0.00 | 0.00 | 0.00 | 89 | 733.8 |
| 20260902112247 | 11 | 201 | 9.7 | 19.3 | 0.00 | 0.00 | 0.00 | 88 | 733.8 |
| 20260902111747 | 11 | 201 | 8.0 | 16.1 | 0.00 | 0.00 | 0.00 | 88 | 733.8 |
| 20260902111244 | 11 | 200 | 9.7 | 17.7 | 0.00 | 0.00 | 0.00 | 88 | 733.8 |
| 20260902110750 | 11 | 190 | 11.3 | 16.1 | 0.00 | 0.00 | 0.00 | 88 | 733.8 |
| 20260902110247 | 11 | 195 | 9.7 | 16.1 | 0.00 | 0.00 | 0.00 | 89 | 733.8 |
| 20260902105750 | 11 | 191 | 9.7 | 16.1 | 0.00 | 0.00 | 0.00 | 90 | 733.8 |
| 20260902105244 | 11 | 192 | 9.7 | 16.1 | 0.00 | 0.00 | 0.00 | 89 | 733.8 |
| 20260902104744 | 11 | 197 | 9.7 | 17.7 | 0.00 | 0.00 | 0.00 | 89 | 733.8 |
| 20260902104247 | 11 | 200 | 9.7 | 17.7 | 0.00 | 0.00 | 0.00 | 89 | 733.8 |
| 20260902103745 | 11 | 196 | 9.7 | 16.1 | 0.00 | 0.00 | 0.00 | 89 | 733.8 |
| 20260902103244 | 11 | 197 | 9.7 | 16.1 | 0.00 | 0.00 | 0.00 | 88 | 733.8 |
| 20260902102744 | 11 | 199 | 9.7 | 16.1 | 0.00 | 0.00 | 0.00 | 88 | 733.8 |
| 20260902102244 | 11 | 194 | 9.7 | 17.7 | 0.00 | 0.00 | 0.00 | 88 | 733.8 |
| 20260902101744 | 11 | 200 | 8.0 | 16.1 | 0.00 | 0.00 | 0.00 | 87 | 733.8 |
| 20260902101247 | 11 | 196 | 9.7 | 17.7 | 0.00 | 0.00 | 0.00 | 87 | 734.2 |
| 20260902100750 | 11 | 191 | 11.3 | 17.7 | 0.00 | 0.00 | 0.00 | 86 | 733.8 |
| 20260902100244 | 12 | 200 | 9.7 | 17.7 | 0.00 | 0.00 | 0.00 | 85 | 734.2 |
| 20260902095744 | 11 | 193 | 9.7 | 17.7 | 0.00 | 0.00 | 0.00 | 85 | 734.2 |
| 20260902095247 | 11 | 190 | 12.9 | 17.7 | 0.00 | 0.00 | 0.00 | 86 | 734.2 |
| 20260902094744 | 11 | 191 | 12.9 | 19.3 | 0.00 | 0.00 | 0.00 | 85 | 734.2 |
| 20260902094244 | 11 | 187 | 12.9 | 19.3 | 0.00 | 0.00 | 0.00 | 85 | 734.2 |
| 20260902093744 | 11 | 188 | 14.5 | 17.7 | 0.00 | 0.00 | 0.00 | 86 | 734.2 |
| 20260902093244 | 11 | 195 | 9.7 | 16.1 | 0.00 | 0.00 | 0.00 | 86 | 734.2 |
| 20260902092744 | 11 | 189 | 11.3 | 17.7 | 0.00 | 0.00 | 0.00 | 85 | 734.2 |
| 20260902092244 | 11 | 188 | 12.9 | 19.3 | 0.00 | 0.00 | 0.00 | 85 | 734.2 |
| 20260902091744 | 11 | 185 | 12.9 | 17.7 | 0.00 | 0.00 | 0.00 | 85 | 734.2 |
| 20260902091244 | 11 | 186 | 14.5 | 19.3 | 0.00 | 0.00 | 0.00 | 84 | 734.2 |
| 20260902090744 | 11 | 185 | 14.5 | 17.7 | 0.00 | 0.00 | 0.00 | 83 | 734.2 |
| 20260902090244 | 11 | 190 | 12.9 | 20.9 | 0.00 | 0.00 | 0.00 | 84 | 734.2 |
| 20260902085752 | 11 | 185 | 12.9 | 16.1 | 0.00 | 0.00 | 0.00 | 83 | 734.2 |
| 20260902085248 | 11 | 185 | 12.9 | 17.7 | 0.00 | 0.00 | 0.00 | 83 | 734.2 |
| 20260902084747 | 11 | 185 | 14.5 | 17.7 | 0.00 | 0.00 | 0.00 | 82 | 734.2 |
| 20260902084244 | 11 | 186 | 12.9 | 16.1 | 0.00 | 0.00 | 0.00 | 81 | 734.2 |
| 20260902083744 | 11 | 190 | 11.3 | 16.1 | 0.00 | 0.00 | 0.00 | 81 | 734.2 |
| 20260902083244 | 11 | 189 | 12.9 | 17.7 | 0.00 | 0.00 | 0.00 | 81 | 734.2 |
| 20260902082749 | 11 | 189 | 12.9 | 17.7 | 0.00 | 0.00 | 0.00 | 80 | 734.2 |
| 20260902082244 | 11 | 187 | 12.9 | 16.1 | 0.00 | 0.00 | 0.00 | 80 | 734.5 |
| 20260902081750 | 11 | 186 | 12.9 | 16.1 | 0.00 | 0.00 | 0.00 | 80 | 734.5 |
| 20260902081244 | 11 | 187 | 14.5 | 17.7 | 0.00 | 0.00 | 0.00 | 79 | 734.5 |
| 20260902080747 | 11 | 191 | 11.3 | 17.7 | 0.00 | 0.00 | 0.00 | 79 | 734.5 |
| 20260902080244 | 11 | 189 | 12.9 | 17.7 | 0.00 | 0.00 | 0.00 | 78 | 734.5 |
| 20260902075744 | 11 | 190 | 12.9 | 19.3 | 0.00 | 0.00 | 0.00 | 77 | 734.5 |
| 20260902075244 | 11 | 188 | 12.9 | 19.3 | 0.00 | 0.00 | 0.00 | 76 | 734.5 |
| 20260902074750 | 11 | 184 | 12.9 | 17.7 | 0.00 | 0.00 | 0.00 | 76 | 734.5 |
| 20260902074244 | 11 | 187 | 12.9 | 19.3 | 0.00 | 0.00 | 0.00 | 76 | 734.5 |
| 20260902073744 | 11 | 190 | 12.9 | 17.7 | 0.00 | 0.00 | 0.00 | 76 | 734.5 |
| 20260902073246 | 11 | 189 | 11.3 | 20.9 | 0.00 | 0.00 | 0.00 | 76 | 734.5 |
| 20260902072744 | 11 | 189 | 11.3 | 17.7 | 0.00 | 0.00 | 0.00 | 76 | 734.5 |
| 20260902072244 | 12 | 189 | 11.3 | 19.3 | 0.00 | 0.00 | 0.00 | 75 | 734.5 |
| 20260902071744 | 11 | 192 | 11.3 | 17.7 | 0.00 | 0.00 | 0.00 | 76 | 734.5 |
| 20260902071247 | 12 | 188 | 11.3 | 17.7 | 0.00 | 0.00 | 0.00 | 75 | 734.5 |
| 20260902070747 | 12 | 187 | 12.9 | 19.3 | 0.00 | 0.00 | 0.00 | 76 | 734.5 |
| 20260902070244 | 12 | 189 | 12.9 | 17.7 | 0.00 | 0.00 | 0.00 | 75 | 734.5 |
| 20260902065744 | 12 | 189 | 12.9 | 19.3 | 0.00 | 0.00 | 0.00 | 74 | 734.5 |
| 20260902065244 | 12 | 186 | 14.5 | 20.9 | 0.00 | 0.00 | 0.00 | 74 | 734.2 |
| 20260902064750 | 12 | 183 | 12.9 | 17.7 | 0.00 | 0.00 | 0.00 | 73 | 734.2 |
| 20260902064244 | 12 | 185 | 12.9 | 20.9 | 0.00 | 0.00 | 0.00 | 73 | 734.2 |
| 20260902063745 | 12 | 188 | 14.5 | 22.5 | 0.00 | 0.00 | 0.00 | 73 | 734.2 |
| 20260902063246 | 12 | 189 | 14.5 | 19.3 | 0.00 | 0.00 | 0.00 | 72 | 734.5 |
| 20260902062747 | 12 | 188 | 12.9 | 19.3 | 0.00 | 0.00 | 0.00 | 72 | 734.5 |
| 20260902062244 | 12 | 186 | 12.9 | 17.7 | 0.00 | 0.00 | 0.00 | 72 | 734.2 |
| 20260902061744 | 12 | 185 | 14.5 | 22.5 | 0.00 | 0.00 | 0.00 | 72 | 734.2 |
| 20260902061244 | 12 | 184 | 16.1 | 22.5 | 0.00 | 0.00 | 0.00 | 71 | 734.2 |
| 20260902060744 | 12 | 185 | 14.5 | 19.3 | 0.00 | 0.00 | 0.00 | 71 | 734.5 |
| 20260902060247 | 12 | 184 | 12.9 | 19.3 | 0.00 | 0.00 | 0.00 | 71 | 734.5 |
| 20260902055744 | 12 | 182 | 14.5 | 19.3 | 0.00 | 0.00 | 0.00 | 70 | 734.5 |
| 20260902055244 | 12 | 184 | 14.5 | 20.9 | 0.00 | 0.00 | 0.00 | 69 | 734.5 |
| 20260902054750 | 12 | 182 | 12.9 | 20.9 | 0.00 | 0.00 | 0.00 | 69 | 734.5 |
| 20260902054244 | 12 | 186 | 14.5 | 20.9 | 0.00 | 0.00 | 0.00 | 68 | 734.5 |
| 20260902053748 | 12 | 181 | 12.9 | 19.3 | 0.00 | 0.00 | 0.00 | 68 | 734.5 |
| 20260902053244 | 12 | 179 | 12.9 | 24.1 | 0.00 | 0.00 | 0.00 | 67 | 734.5 |
| 20260902052744 | 12 | 183 | 14.5 | 24.1 | 0.00 | 0.00 | 0.00 | 67 | 734.5 |
| 20260902052247 | 12 | 185 | 16.1 | 24.1 | 0.00 | 0.00 | 0.00 | 67 | 734.5 |
| 20260902051747 | 12 | 183 | 14.5 | 24.1 | 0.00 | 0.00 | 0.00 | 67 | 734.5 |
| 20260902051247 | 12 | 182 | 16.1 | 25.7 | 0.00 | 0.00 | 0.00 | 66 | 734.5 |
| 20260902050744 | 12 | 182 | 14.5 | 22.5 | 0.00 | 0.00 | 0.00 | 66 | 734.5 |
| 20260902050245 | 12 | 183 | 14.5 | 24.1 | 0.00 | 0.00 | 0.00 | 66 | 734.5 |
| 20260902045744 | 12 | 183 | 16.1 | 24.1 | 0.00 | 0.00 | 0.00 | 66 | 734.5 |
| 20260902045244 | 12 | 181 | 14.5 | 29.0 | 0.00 | 0.00 | 0.00 | 66 | 734.5 |
| 20260902044744 | 12 | 185 | 16.1 | 22.5 | 0.00 | 0.00 | 0.00 | 66 | 734.5 |
| 20260902044247 | 13 | 176 | 14.5 | 27.4 | 0.00 | 0.00 | 0.00 | 66 | 734.5 |
| 20260902043747 | 12 | 182 | 14.5 | 24.1 | 0.00 | 0.00 | 0.00 | 66 | 734.5 |
| 20260902043247 | 12 | 182 | 14.5 | 20.9 | 0.00 | 0.00 | 0.00 | 66 | 734.5 |
| 20260902042744 | 12 | 178 | 12.9 | 20.9 | 0.00 | 0.00 | 0.00 | 65 | 734.5 |
| 20260902042244 | 12 | 178 | 12.9 | 22.5 | 0.00 | 0.00 | 0.00 | 65 | 734.5 |
| 20260902041744 | 12 | 177 | 14.5 | 17.7 | 0.00 | 0.00 | 0.00 | 66 | 734.5 |
| 20260902041247 | 12 | 180 | 11.3 | 20.9 | 0.00 | 0.00 | 0.00 | 65 | 734.5 |
| 20260902040745 | 12 | 173 | 14.5 | 20.9 | 0.00 | 0.00 | 0.00 | 65 | 734.2 |
| 20260902040246 | 12 | 176 | 12.9 | 19.3 | 0.00 | 0.00 | 0.00 | 65 | 734.2 |
| 20260902035744 | 12 | 174 | 12.9 | 20.9 | 0.00 | 0.00 | 0.00 | 66 | 734.2 |
| 20260902035244 | 12 | 174 | 12.9 | 19.3 | 0.00 | 0.00 | 0.00 | 66 | 734.2 |
| 20260902034744 | 12 | 172 | 12.9 | 17.7 | 0.00 | 0.00 | 0.00 | 66 | 734.2 |
| 20260902034244 | 12 | 174 | 11.3 | 16.1 | 0.00 | 0.00 | 0.00 | 68 | 734.2 |
| 20260902033747 | 12 | 177 | 11.3 | 16.1 | 0.00 | 0.00 | 0.00 | 67 | 733.8 |
| 20260902033244 | 12 | 180 | 12.9 | 19.3 | 0.00 | 0.00 | 0.00 | 67 | 733.8 |
| 20260902032744 | 12 | 181 | 12.9 | 19.3 | 0.00 | 0.00 | 0.00 | 68 | 733.8 |
| 20260902032250 | 12 | 178 | 11.3 | 20.9 | 0.00 | 0.00 | 0.00 | 68 | 733.8 |
| 20260902031744 | 12 | 180 | 12.9 | 16.1 | 0.00 | 0.00 | 0.00 | 69 | 733.8 |
| 20260902031247 | 12 | 178 | 9.7 | 16.1 | 0.00 | 0.00 | 0.00 | 70 | 733.8 |
| 20260902030744 | 12 | 179 | 11.3 | 16.1 | 0.00 | 0.00 | 0.00 | 69 | 733.5 |
| 20260902030245 | 12 | 181 | 11.3 | 17.7 | 0.00 | 0.00 | 0.00 | 69 | 733.5 |
| 20260902025747 | 12 | 180 | 11.3 | 14.5 | 0.00 | 0.00 | 0.00 | 69 | 733.5 |
| 20260902025247 | 12 | 182 | 9.7 | 14.5 | 0.00 | 0.00 | 0.00 | 69 | 733.5 |
| 20260902024744 | 12 | 180 | 9.7 | 17.7 | 0.00 | 0.00 | 0.00 | 69 | 733.5 |
| 20260902024244 | 12 | 177 | 9.7 | 16.1 | 0.00 | 0.00 | 0.00 | 69 | 733.5 |
| 20260902023747 | 12 | 182 | 11.3 | 14.5 | 0.00 | 0.00 | 0.00 | 69 | 733.5 |
| 20260902023247 | 12 | 183 | 11.3 | 17.7 | 0.00 | 0.00 | 0.00 | 69 | 733.5 |
| 20260902022744 | 12 | 180 | 9.7 | 16.1 | 0.00 | 0.00 | 0.00 | 69 | 733.5 |
| 20260902022246 | 12 | 180 | 9.7 | 17.7 | 0.00 | 0.00 | 0.00 | 69 | 733.1 |
| 20260902021744 | 12 | 181 | 11.3 | 16.1 | 0.00 | 0.00 | 0.00 | 69 | 733.1 |
| 20260902021244 | 12 | 176 | 9.7 | 14.5 | 0.00 | 0.00 | 0.00 | 69 | 733.1 |
| 20260902020746 | 12 | 176 | 9.7 | 16.1 | 0.00 | 0.00 | 0.00 | 69 | 733.1 |
| 20260902020245 | 12 | 186 | 9.7 | 14.5 | 0.00 | 0.00 | 0.00 | 68 | 733.1 |
| 20260902015744 | 13 | 185 | 9.7 | 16.1 | 0.00 | 0.00 | 0.00 | 67 | 733.1 |
| 20260902015248 | 13 | 188 | 9.7 | 14.5 | 0.00 | 0.00 | 0.00 | 67 | 733.1 |
| 20260902014744 | 13 | 193 | 9.7 | 16.1 | 0.00 | 0.00 | 0.00 | 66 | 733.1 |
| 20260902014250 | 13 | 200 | 6.4 | 16.1 | 0.00 | 0.00 | 0.00 | 65 | 733.1 |
| 20260902013744 | 13 | 194 | 9.7 | 16.1 | 0.00 | 0.00 | 0.00 | 64 | 733.1 |
| 20260902013247 | 14 | 189 | 8.0 | 12.9 | 0.00 | 0.00 | 0.00 | 64 | 733.1 |
| 20260902012744 | 14 | 199 | 6.4 | 12.9 | 0.00 | 0.00 | 0.00 | 63 | 733.5 |
| 20260902012244 | 14 | 195 | 4.8 | 12.9 | 0.00 | 0.00 | 0.00 | 63 | 733.5 |
| 20260902011744 | 15 | 196 | 6.4 | 12.9 | 0.00 | 0.00 | 0.00 | 61 | 733.5 |
| 20260902011247 | 15 | 182 | 6.4 | 11.3 | 0.00 | 0.00 | 0.00 | 62 | 733.5 |
| 20260902010744 | 15 | 197 | 6.4 | 12.9 | 0.00 | 0.00 | 0.00 | 60 | 733.5 |
| 20260902010244 | 15 | 208 | 4.8 | 12.9 | 0.00 | 0.00 | 0.00 | 59 | 733.5 |
| 20260902005744 | 15 | 202 | 3.2 | 11.3 | 0.00 | 0.00 | 0.00 | 58 | 733.5 |
| 20260902005244 | 15 | 224 | 1.6 | 11.3 | 0.00 | 0.00 | 0.00 | 60 | 733.5 |
| 20260902004744 | 15 | 239 | 1.6 | 6.4 | 0.00 | 0.00 | 0.00 | 58 | 733.5 |
| 20260902004250 | 15 | 243 | 1.6 | 8.0 | 0.00 | 0.00 | 0.00 | 58 | 733.8 |
| 20260902003750 | 16 | 190 | 1.6 | 11.3 | 0.00 | 0.00 | 0.00 | 57 | 733.8 |
| 20260902003244 | 16 | 250 | 0.0 | 11.3 | 0.00 | 0.00 | 0.00 | 56 | 733.8 |
| 20260902002744 | 16 | 220 | 0.0 | 9.7 | 0.00 | 0.00 | 0.00 | 56 | 733.8 |
| 20260902002250 | 16 | 256 | 1.6 | 8.0 | 0.00 | 0.00 | 0.00 | 57 | 733.8 |
| 20260902001744 | 16 | 249 | 1.6 | 14.5 | 0.00 | 0.00 | 0.00 | 57 | 733.8 |
| 20260902001244 | 17 | 209 | 3.2 | 11.3 | 0.00 | 0.00 | 0.00 | 56 | 733.8 |
| 20260902000744 | 17 | 228 | 1.6 | 6.4 | 0.00 | 0.00 | 0.00 | 56 | 733.8 |
| 20260902000244 | 17 | 324 | 1.6 | 8.0 | 0.00 | 0.00 | 0.00 | 56 | 733.8 |
| 20260901235744 | 17 | 223 | 0.0 | 8.0 | 0.00 | 0.00 | 0.00 | 58 | 733.8 |
| 20260901235244 | 16 | 222 | 1.6 | 4.8 | 0.00 | 0.00 | 0.00 | 59 | 733.8 |
| 20260901234744 | 16 | 234 | 0.0 | 8.0 | 0.00 | 0.00 | 0.00 | 61 | 733.8 |
| 20260901234250 | 16 | 233 | 1.6 | 11.3 | 0.00 | 0.00 | 0.00 | 62 | 733.8 |
| 20260901233749 | 16 | 266 | 0.0 | 11.3 | 0.00 | 0.00 | 0.00 | 61 | 733.8 |
| 20260901233251 | 16 | 238 | 1.6 | 9.7 | 0.00 | 0.00 | 0.00 | 62 | 733.8 |
| 20260901232745 | 16 | 302 | 3.2 | 12.9 | 0.00 | 0.00 | 0.00 | 63 | 733.8 |